| time (UTC) | temp F | wind direction | speed MPH | gust MPH | rain 1hr in | rain 24hr in | rain mn in | humidity % | barometer mb |
| 20260903231204 | 72 | 61 | 2.0 | 3.0 | 0.00 | 0.58 | 0.25 | 91 | 991.4 |
| 20260903230204 | 73 | 68 | 2.0 | 3.0 | 0.00 | 0.58 | 0.25 | 90 | 991.2 |
| 20260903224703 | 73 | 35 | 2.0 | 3.0 | 0.00 | 0.58 | 0.25 | 90 | 991.3 |
| 20260903224203 | 74 | 40 | 1.0 | 3.0 | 0.00 | 0.58 | 0.25 | 90 | 991.4 |
| 20260903223704 | 74 | 76 | 1.0 | 3.0 | 0.00 | 0.58 | 0.25 | 90 | 991.3 |
| 20260903223205 | 74 | 72 | 2.0 | 3.0 | 0.00 | 0.58 | 0.25 | 89 | 991.2 |
| 20260903221703 | 75 | 84 | 0.0 | 3.0 | 0.00 | 0.58 | 0.25 | 88 | 991.2 |
| 20260903221204 | 76 | 79 | 2.0 | 3.0 | 0.00 | 0.58 | 0.25 | 87 | 991.1 |
| 20260903220204 | 77 | 59 | 2.0 | 3.0 | 0.00 | 0.58 | 0.25 | 86 | 991.0 |
| 20260903214704 | 78 | 344 | 1.0 | 5.0 | 0.00 | 0.58 | 0.25 | 83 | 990.9 |
| 20260903214203 | 78 | 11 | 2.0 | 5.0 | 0.00 | 0.58 | 0.25 | 85 | 990.7 |
| 20260903213705 | 78 | 61 | 3.0 | 3.0 | 0.00 | 0.58 | 0.25 | 84 | 990.6 |
| 20260903213203 | 78 | 52 | 1.0 | 3.0 | 0.00 | 0.58 | 0.25 | 86 | 990.5 |
| 20260903211704 | 77 | 71 | 1.0 | 6.0 | 0.00 | 0.58 | 0.25 | 87 | 990.5 |
| 20260903211204 | 77 | 58 | 1.0 | 6.0 | 0.00 | 0.58 | 0.25 | 88 | 990.7 |
| 20260903210704 | 76 | 20 | 2.0 | 6.0 | 0.00 | 0.58 | 0.25 | 88 | 990.7 |
| 20260903210204 | 76 | 56 | 2.0 | 6.0 | 0.00 | 0.58 | 0.25 | 88 | 990.8 |
| 20260903204703 | 77 | 80 | 2.0 | 3.0 | 0.00 | 0.58 | 0.25 | 88 | 990.8 |
| 20260903204204 | 77 | 74 | 1.0 | 3.0 | 0.00 | 0.58 | 0.25 | 87 | 990.8 |
| 20260903201203 | 77 | 120 | 1.0 | 2.0 | 0.00 | 0.58 | 0.25 | 86 | 990.9 |
| 20260903200704 | 76 | 130 | 1.0 | 2.0 | 0.00 | 0.58 | 0.25 | 88 | 990.9 |
| 20260903200204 | 76 | 121 | 1.0 | 3.0 | 0.00 | 0.58 | 0.25 | 87 | 990.9 |
| 20260903194705 | 76 | 144 | 2.0 | 6.0 | 0.00 | 0.58 | 0.25 | 87 | 991.0 |
| 20260903194204 | 76 | 173 | 2.0 | 6.0 | 0.00 | 0.58 | 0.25 | 87 | 991.2 |
| 20260903193703 | 75 | 251 | 1.0 | 6.0 | 0.00 | 0.58 | 0.25 | 90 | 991.3 |
| 20260903193205 | 75 | 140 | 1.0 | 3.0 | 0.00 | 0.58 | 0.25 | 91 | 991.4 |
| 20260903191704 | 75 | 132 | 1.0 | 5.0 | 0.01 | 0.58 | 0.25 | 91 | 991.5 |
| 20260903190203 | 76 | 117 | 1.0 | 5.0 | 0.01 | 0.58 | 0.25 | 89 | 991.7 |
| 20260903184703 | 76 | 78 | 2.0 | 3.0 | 0.02 | 0.58 | 0.25 | 87 | 992.2 |
| 20260903183704 | 74 | 63 | 1.0 | 3.0 | 0.02 | 0.58 | 0.25 | 90 | 991.9 |
| 20260903183204 | 74 | 74 | 2.0 | 3.0 | 0.02 | 0.57 | 0.25 | 91 | 991.9 |
| 20260903181703 | 73 | 72 | 3.0 | 5.0 | 0.00 | 0.57 | 0.24 | 94 | 991.8 |
| 20260903180704 | 73 | 343 | 1.0 | 3.0 | 0.00 | 0.57 | 0.24 | 94 | 992.3 |
| 20260903180204 | 72 | 73 | 2.0 | 3.0 | 0.00 | 0.56 | 0.24 | 94 | 992.1 |
| 20260903174704 | 73 | 64 | 2.0 | 3.0 | 0.00 | 0.56 | 0.23 | 94 | 991.8 |
| 20260903174204 | 73 | 62 | 1.0 | 3.0 | 0.00 | 0.56 | 0.23 | 93 | 991.8 |
| 20260903173704 | 73 | 73 | 2.0 | 3.0 | 0.00 | 0.56 | 0.23 | 94 | 991.6 |
| 20260903173204 | 73 | 80 | 2.0 | 5.0 | 0.00 | 0.56 | 0.23 | 93 | 991.5 |
| 20260903171704 | 75 | 67 | 2.0 | 3.0 | 0.01 | 0.56 | 0.24 | 92 | 991.5 |
| 20260903171204 | 75 | 57 | 0.0 | 2.0 | 0.01 | 0.56 | 0.24 | 91 | 991.7 |
| 20260903170205 | 74 | 24 | 1.0 | 3.0 | 0.10 | 0.56 | 0.24 | 93 | 991.6 |
| 20260903164204 | 73 | 18 | 2.0 | 5.0 | 0.15 | 0.56 | 0.24 | 95 | 991.6 |
| 20260903163704 | 73 | 2 | 1.0 | 5.0 | 0.15 | 0.56 | 0.24 | 96 | 991.6 |
| 20260903163205 | 72 | 16 | 2.0 | 5.0 | 0.15 | 0.56 | 0.24 | 96 | 991.4 |
| 20260903161704 | 71 | 2 | 3.0 | 6.0 | 0.12 | 0.55 | 0.23 | 96 | 991.3 |
| 20260903161204 | 71 | 354 | 2.0 | 6.0 | 0.11 | 0.55 | 0.23 | 96 | 991.3 |
| 20260903160204 | 71 | 333 | 3.0 | 7.0 | 0.03 | 0.46 | 0.14 | 95 | 991.3 |
| 20260903154704 | 71 | 283 | 3.0 | 5.0 | 0.03 | 0.43 | 0.10 | 95 | 992.1 |
| 20260903154204 | 71 | 68 | 1.0 | 5.0 | 0.02 | 0.41 | 0.09 | 96 | 991.6 |
| 20260903153204 | 72 | 56 | 2.0 | 3.0 | 0.02 | 0.41 | 0.09 | 95 | 991.3 |
| 20260903151205 | 72 | 24 | 2.0 | 3.0 | 0.05 | 0.42 | 0.11 | 95 | 990.8 |
| 20260903150704 | 72 | 60 | 0.0 | 2.0 | 0.05 | 0.42 | 0.11 | 95 | 990.6 |
| 20260903144703 | 72 | 59 | 0.0 | 1.0 | 0.00 | 0.37 | 0.07 | 95 | 991.0 |
| 20260903144204 | 72 | 282 | 0.0 | 0.0 | 0.00 | 0.37 | 0.07 | 95 | 990.6 |
| 20260903143704 | 72 | 282 | 0.0 | 2.0 | 0.00 | 0.37 | 0.06 | 94 | 990.7 |
| 20260903143204 | 72 | 282 | 0.0 | 2.0 | 0.00 | 0.37 | 0.06 | 94 | 990.8 |
| 20260903141703 | 72 | 82 | 0.0 | 2.0 | 0.00 | 0.37 | 0.06 | 94 | 991.1 |
| 20260903141204 | 72 | 82 | 0.0 | 2.0 | 0.00 | 0.37 | 0.06 | 94 | 990.9 |
| 20260903140203 | 72 | 66 | 2.0 | 3.0 | 0.00 | 0.37 | 0.06 | 94 | 990.9 |
| 20260903134704 | 71 | 64 | 2.0 | 3.0 | 0.00 | 0.37 | 0.06 | 94 | 991.1 |
| 20260903134204 | 71 | 76 | 3.0 | 3.0 | 0.00 | 0.37 | 0.06 | 94 | 991.0 |
| 20260903133703 | 71 | 66 | 2.0 | 5.0 | 0.00 | 0.37 | 0.06 | 94 | 991.1 |
| 20260903133203 | 71 | 65 | 2.0 | 5.0 | 0.00 | 0.37 | 0.06 | 94 | 990.9 |
| 20260903131205 | 71 | 58 | 0.0 | 3.0 | 0.00 | 0.37 | 0.06 | 95 | 990.8 |
| 20260903130203 | 71 | 64 | 1.0 | 5.0 | 0.03 | 0.37 | 0.06 | 95 | 990.8 |
| 20260903124704 | 71 | 65 | 2.0 | 3.0 | 0.07 | 0.37 | 0.06 | 96 | 990.8 |
| 20260903123704 | 70 | 54 | 2.0 | 3.0 | 0.06 | 0.37 | 0.06 | 97 | 990.8 |
| 20260903123204 | 70 | 100 | 0.0 | 2.0 | 0.06 | 0.37 | 0.06 | 97 | 990.9 |
| 20260903121703 | 70 | 49 | 1.0 | 2.0 | 0.14 | 0.37 | 0.14 | 97 | 990.9 |
| 20260903121203 | 69 | 61 | 1.0 | 1.0 | 0.14 | 0.37 | 0.14 | 97 | 990.9 |
| 20260903120705 | 69 | 67 | 0.0 | 3.0 | 0.14 | 0.37 | 0.14 | 97 | 991.0 |
| 20260903114204 | 68 | 85 | 2.0 | 2.0 | 0.00 | 0.23 | 0.00 | 97 | 991.3 |
| 20260903113704 | 68 | 274 | 0.0 | 1.0 | 0.00 | 0.23 | 0.00 | 97 | 991.3 |
| 20260903111704 | 67 | 44 | 0.0 | 0.0 | 0.00 | 0.23 | 0.00 | 97 | 991.1 |
| 20260903111205 | 67 | 44 | 0.0 | 0.0 | 0.00 | 0.23 | 0.00 | 97 | 991.0 |
| 20260903110704 | 67 | 44 | 0.0 | 1.0 | 0.00 | 0.23 | 0.00 | 97 | 991.0 |
| 20260903110207 | 67 | 44 | 0.0 | 1.0 | 0.00 | 0.33 | 0.00 | 96 | 991.0 |
| 20260903104704 | 67 | 104 | 0.0 | 0.0 | 0.00 | 0.45 | 0.00 | 96 | 990.9 |
| 20260903104204 | 67 | 104 | 0.0 | 0.0 | 0.00 | 0.45 | 0.00 | 96 | 990.9 |
| 20260903103704 | 67 | 104 | 0.0 | 0.0 | 0.00 | 0.45 | 0.00 | 96 | 991.0 |
| 20260903103204 | 67 | 104 | 0.0 | 0.0 | 0.00 | 0.45 | 0.00 | 96 | 991.0 |
| 20260903101703 | 67 | 104 | 0.0 | 0.0 | 0.00 | 0.45 | 0.00 | 96 | 990.9 |
| 20260903101204 | 67 | 104 | 0.0 | 0.0 | 0.00 | 0.45 | 0.00 | 96 | 991.1 |
| 20260903100703 | 67 | 104 | 0.0 | 0.0 | 0.00 | 0.45 | 0.00 | 97 | 991.1 |
| 20260903100204 | 67 | 104 | 0.0 | 0.0 | 0.00 | 0.45 | 0.00 | 97 | 990.9 |
| 20260903094704 | 67 | 104 | 0.0 | 0.0 | 0.00 | 0.45 | 0.00 | 96 | 990.9 |
| 20260903093704 | 67 | 104 | 0.0 | 0.0 | 0.00 | 0.45 | 0.00 | 96 | 990.8 |
| 20260903093204 | 67 | 104 | 0.0 | 0.0 | 0.00 | 0.45 | 0.00 | 97 | 990.9 |
| 20260903091704 | 66 | 104 | 0.0 | 0.0 | 0.00 | 0.45 | 0.00 | 96 | 990.7 |
| 20260903090705 | 66 | 104 | 0.0 | 0.0 | 0.00 | 0.45 | 0.00 | 96 | 990.5 |
| 20260903090205 | 65 | 104 | 0.0 | 0.0 | 0.00 | 0.45 | 0.00 | 96 | 990.6 |
| 20260903083703 | 66 | 104 | 0.0 | 0.0 | 0.00 | 0.45 | 0.00 | 96 | 990.7 |
| 20260903083204 | 66 | 104 | 0.0 | 0.0 | 0.00 | 0.45 | 0.00 | 96 | 990.7 |
| 20260903081203 | 66 | 104 | 0.0 | 0.0 | 0.00 | 0.46 | 0.00 | 96 | 990.8 |
| 20260903080705 | 66 | 104 | 0.0 | 0.0 | 0.00 | 0.46 | 0.00 | 96 | 990.8 |
| 20260903080204 | 66 | 104 | 0.0 | 0.0 | 0.00 | 0.46 | 0.00 | 96 | 990.8 |
| 20260903074704 | 67 | 104 | 0.0 | 0.0 | 0.00 | 0.46 | 0.00 | 96 | 990.9 |
| 20260903074203 | 68 | 104 | 0.0 | 0.0 | 0.00 | 0.46 | 0.00 | 96 | 990.9 |
| 20260903073703 | 69 | 104 | 0.0 | 0.0 | 0.00 | 0.47 | 0.00 | 96 | 990.9 |
| 20260903073203 | 69 | 104 | 0.0 | 0.0 | 0.00 | 0.47 | 0.00 | 96 | 990.9 |
| 20260903071205 | 68 | 94 | 0.0 | 0.0 | 0.00 | 0.52 | 0.00 | 96 | 991.0 |
| 20260903070704 | 68 | 94 | 0.0 | 1.0 | 0.00 | 0.52 | 0.00 | 97 | 991.0 |
| 20260903070204 | 67 | 94 | 0.0 | 1.0 | 0.00 | 0.52 | 0.00 | 97 | 990.9 |
| 20260903064704 | 66 | 68 | 0.0 | 0.0 | 0.00 | 0.52 | 0.00 | 96 | 991.0 |
| 20260903064203 | 66 | 68 | 0.0 | 0.0 | 0.00 | 0.52 | 0.00 | 96 | 991.0 |
| 20260903063703 | 66 | 68 | 0.0 | 0.0 | 0.00 | 0.52 | 0.00 | 96 | 991.0 |
| 20260903061704 | 66 | 68 | 0.0 | 0.0 | 0.00 | 0.52 | 0.00 | 96 | 991.2 |
| 20260903060703 | 66 | 68 | 0.0 | 0.0 | 0.00 | 0.52 | 0.00 | 96 | 991.1 |
| 20260903054704 | 66 | 68 | 0.0 | 0.0 | 0.22 | 0.52 | 0.00 | 96 | 991.0 |
| 20260903054203 | 67 | 68 | 0.0 | 0.0 | 0.22 | 0.52 | 0.00 | 96 | 991.0 |
| 20260903053703 | 66 | 68 | 0.0 | 0.0 | 0.22 | 0.52 | 0.00 | 96 | 990.9 |
| 20260903053203 | 66 | 68 | 0.0 | 0.0 | 0.22 | 0.52 | 0.00 | 96 | 990.8 |
| 20260903051704 | 66 | 68 | 0.0 | 0.0 | 0.22 | 0.52 | 0.00 | 95 | 990.6 |
| 20260903051204 | 66 | 68 | 0.0 | 0.0 | 0.22 | 0.52 | 0.00 | 95 | 990.6 |
| 20260903044703 | 67 | 68 | 0.0 | 0.0 | 0.00 | 0.30 | 0.22 | 95 | 990.7 |
| 20260903044203 | 67 | 68 | 0.0 | 0.0 | 0.00 | 0.30 | 0.22 | 95 | 990.6 |
| 20260903043203 | 67 | 68 | 0.0 | 0.0 | 0.00 | 0.30 | 0.22 | 95 | 990.7 |
| 20260903041704 | 67 | 68 | 0.0 | 0.0 | 0.00 | 0.30 | 0.22 | 95 | 990.8 |
| 20260903041204 | 67 | 68 | 0.0 | 0.0 | 0.00 | 0.30 | 0.22 | 95 | 990.8 |
| 20260903040703 | 67 | 68 | 0.0 | 0.0 | 0.00 | 0.30 | 0.22 | 95 | 990.7 |
| 20260903040203 | 67 | 68 | 0.0 | 0.0 | 0.00 | 0.30 | 0.22 | 95 | 990.8 |
| 20260903034704 | 67 | 68 | 0.0 | 0.0 | 0.00 | 0.30 | 0.22 | 95 | 990.8 |
| 20260903034204 | 67 | 68 | 0.0 | 0.0 | 0.00 | 0.30 | 0.22 | 95 | 990.9 |
| 20260903033705 | 67 | 68 | 0.0 | 0.0 | 0.00 | 0.30 | 0.22 | 95 | 990.9 |
| 20260903033204 | 67 | 68 | 0.0 | 0.0 | 0.00 | 0.30 | 0.22 | 95 | 990.9 |
| 20260903031704 | 68 | 68 | 0.0 | 0.0 | 0.00 | 0.30 | 0.22 | 95 | 990.8 |
| 20260903031204 | 68 | 68 | 0.0 | 0.0 | 0.00 | 0.30 | 0.22 | 95 | 990.8 |
| 20260903030704 | 68 | 68 | 0.0 | 0.0 | 0.00 | 0.30 | 0.22 | 95 | 990.9 |
| 20260903030204 | 68 | 68 | 0.0 | 0.0 | 0.00 | 0.30 | 0.22 | 95 | 990.9 |
| 20260903024704 | 68 | 68 | 0.0 | 0.0 | 0.00 | 0.30 | 0.22 | 95 | 990.9 |
| 20260903024203 | 68 | 68 | 0.0 | 0.0 | 0.00 | 0.30 | 0.22 | 94 | 990.9 |
| 20260903023703 | 68 | 68 | 0.0 | 0.0 | 0.00 | 0.30 | 0.22 | 94 | 990.9 |
| 20260903023204 | 68 | 68 | 0.0 | 0.0 | 0.00 | 0.30 | 0.22 | 94 | 990.9 |
| 20260903021203 | 68 | 68 | 0.0 | 0.0 | 0.00 | 0.30 | 0.22 | 94 | 990.7 |
| 20260903020704 | 68 | 68 | 0.0 | 0.0 | 0.00 | 0.30 | 0.22 | 94 | 990.7 |
| 20260903020204 | 69 | 68 | 0.0 | 0.0 | 0.00 | 0.30 | 0.22 | 94 | 990.7 |
| 20260903014704 | 69 | 68 | 0.0 | 0.0 | 0.00 | 0.30 | 0.22 | 94 | 990.7 |
| 20260903013705 | 69 | 68 | 0.0 | 0.0 | 0.00 | 0.30 | 0.22 | 93 | 990.6 |
| 20260903013203 | 69 | 68 | 0.0 | 0.0 | 0.00 | 0.30 | 0.22 | 93 | 990.6 |
| 20260903011704 | 70 | 68 | 0.0 | 0.0 | 0.00 | 0.30 | 0.22 | 92 | 990.4 |
| 20260903011204 | 70 | 68 | 0.0 | 0.0 | 0.00 | 0.30 | 0.22 | 92 | 990.3 |
| 20260903010704 | 70 | 68 | 0.0 | 0.0 | 0.00 | 0.30 | 0.22 | 92 | 990.3 |
| 20260903010205 | 70 | 68 | 0.0 | 0.0 | 0.00 | 0.30 | 0.22 | 92 | 990.3 |
| 20260903004704 | 71 | 68 | 0.0 | 0.0 | 0.00 | 0.30 | 0.22 | 91 | 990.1 |
| 20260903004204 | 71 | 68 | 0.0 | 0.0 | 0.00 | 0.30 | 0.22 | 91 | 990.1 |
| 20260903003204 | 72 | 68 | 0.0 | 2.0 | 0.00 | 0.30 | 0.22 | 90 | 990.1 |
| 20260903001704 | 72 | 59 | 0.0 | 2.0 | 0.00 | 0.30 | 0.22 | 89 | 990.3 |
| 20260903001205 | 73 | 58 | 1.0 | 2.0 | 0.00 | 0.30 | 0.22 | 89 | 990.2 |
| 20260903000704 | 73 | 72 | 1.0 | 2.0 | 0.00 | 0.30 | 0.22 | 88 | 990.1 |
| 20260902234703 | 74 | 59 | 1.0 | 2.0 | 0.00 | 0.30 | 0.22 | 86 | 990.1 |
| 20260902234205 | 75 | 74 | 2.0 | 2.0 | 0.00 | 0.30 | 0.22 | 85 | 990.1 |
| 20260902233704 | 75 | 87 | 1.0 | 3.0 | 0.00 | 0.30 | 0.22 | 84 | 990.0 |
| 20260902233205 | 75 | 72 | 1.0 | 3.0 | 0.00 | 0.30 | 0.22 | 86 | 990.0 |
| 20260902231703 | 75 | 84 | 1.0 | 3.0 | 0.00 | 0.30 | 0.22 | 84 | 990.1 |